#timestamp,LO_Frequency,Hit,StdDev 
1543104015.4,286046998.2,N
1543104035.2,286047000.5,N
1543104055.1,286047000.0,N
1543104056.0,286047000.0,N
1543104075.8,286046999.9,N
1543104095.6,286047001.2,N
1543104115.5,286046999.0,N
1543104135.3,286046998.4,N
1543104155.1,286046998.4,N
1543104175.9,286046998.8,N
1543104195.7,286046996.6,N
1543104215.6,286046998.4,N
1543104235.4,286046998.8,N
1543104255.2,286046998.4,N
1543104275.1,286046999.5,N
1543104276.0,286046999.5,N
1543104295.8,286046998.6,N
1543104315.7,286046998.7,N
1543104335.5,286046999.2,N
1543104355.3,286046998.8,N
1543104375.2,286046998.9,N
1543104395.9,286046998.8,N
1543104415.7,286046996.6,N
1543104435.6,286046997.1,N
1543104455.4,286046996.6,N
1543104475.3,286046997.2,N
1543104495.1,286046995.4,Y
1543104496.0,286046995.4,P
1543104515.8,286046997.1,N
1543104535.7,286046999.3,N
1543104555.5,286046996.5,N
1543104575.3,286046998.6,N
1543104595.2,286046999.0,N
1543104615.0,286046999.5,N
1543104615.9,286046999.5,N
1543104635.8,286046999.3,N
1543104655.6,286047001.1,N
1543104675.4,286046999.5,N
1543104695.3,286046998.6,N
1543104715.1,286046998.6,N
1543104735.9,286046998.4,N
1543104755.7,286046999.3,N
1543104775.5,286046998.3,N
1543104795.4,286046999.4,N
1543104815.2,286046999.2,N
1543104835.0,286047000.8,N
1543104835.9,286047000.8,N
1543104855.8,286047001.0,N
1543104875.6,286046998.1,N
1543104895.5,286047000.8,N
1543104915.3,286047000.6,N
1543104935.1,286047001.0,N
1543104955.9,286046998.7,N
1543104975.7,286046999.3,N
1543104995.5,286047000.9,N
1543105015.4,286047003.6,N
1543105035.2,286047004.1,N
1543105055.1,286047001.6,N
1543105056.0,286047001.6,N
1543105075.8,286047004.4,N
1543105095.6,286047001.4,N
1543105115.5,286047004.1,N
1543105135.3,286047000.2,N
1543105155.2,286047001.9,N
1543105175.9,286047001.6,N
1543105195.7,286047001.3,N
1543105215.6,286047003.9,N
1543105235.4,286047002.9,N
1543105255.2,286047001.8,N
1543105275.1,286047001.3,N
1543105276.0,286047001.3,N
1543105295.8,286047001.7,N
1543105315.7,286047004.0,N
1543105335.5,286047004.2,N
1543105355.3,286047004.2,N
1543105375.2,286047003.0,N
1543105395.0,286047005.9,Y
1543105395.9,286047005.9,P
1543105415.8,286047003.7,N
1543105435.6,286047001.4,N
1543105455.4,286047004.0,N
1543105475.3,286047005.2,Y
1543105495.1,286047001.4,P
1543105515.8,286047004.2,P
1543105535.7,286047001.8,N
1543105555.5,286047002.0,N
1543105575.4,286047004.0,Y
1543105595.2,286046998.2,P
1543105615.0,286046998.3,N
1543105615.9,286046998.3,N
1543105635.8,286046998.5,N
1543105655.6,286047000.9,N
1543105675.5,286047000.6,N
1543105695.3,286047002.6,N
1543105715.1,286047002.7,N
1543105735.9,286047004.2,N
1543105755.7,286047003.9,N
1543105775.5,286047003.5,N
1543105795.4,286047001.5,N
1543105815.2,286047003.6,N
1543105835.1,286047004.2,N
1543105836.0,286047004.2,N
1543105855.8,286047005.8,N
1543105875.6,286047004.1,N
1543105895.5,286047005.9,N
1543105915.3,286047004.7,N
1543105935.1,286047005.6,N
1543105955.9,286047003.8,N
1543105975.7,286047005.6,N
1543105995.6,286047007.0,N
1543106015.4,286047005.1,N
1543106035.2,286047006.3,N
1543106055.1,286047009.0,Y
1543106056.0,286047009.0,P
1543106075.8,286047003.2,N
1543106095.6,286047003.7,N
1543106115.5,286047006.0,N
1543106135.3,286047005.5,N
1543106155.2,286047007.4,Y
1543106175.9,286047002.1,P
1543106195.7,286047001.7,N
1543106215.6,286047002.6,N
1543106235.4,286047000.0,N
1543106255.2,286047002.8,N
1543106275.1,286047001.7,N
1543106276.0,286047001.7,N
1543106295.8,286047002.2,N
1543106315.7,286047002.6,N
1543106335.5,286047001.3,N
1543106355.3,286047002.9,N
1543106375.2,286047005.2,Y
1543106395.0,286047004.0,P
1543106395.9,286047004.0,P
1543106415.8,286047003.6,P
1543106435.6,286047005.9,Y
1543106455.4,286047002.1,P
1543106475.3,286047000.1,N
1543106495.1,286047002.6,N
1543106515.9,286046999.7,N
1543106535.7,286047002.7,N
1543106555.5,286047001.6,N
1543106575.4,286047001.5,N
1543106595.2,286047001.7,N
1543106615.0,286047003.9,Y
1543106615.9,286047003.9,P
1543106635.8,286047002.3,N
1543106655.6,286047001.7,N
1543106675.5,286047003.7,Y
1543106695.3,286047000.8,P
1543106715.1,286047000.0,N
1543106735.9,286047000.3,N
1543106755.7,286047000.5,N
1543106775.6,286047002.5,N
1543106795.4,286047001.4,N
1543106815.2,286047001.4,N
1543106835.1,286047004.0,Y
1543106836.0,286047004.0,P
1543106855.8,286046999.7,N
1543106875.6,286047002.0,N
1543106895.5,286047001.5,N
1543106915.3,286047002.0,N
1543106935.2,286047000.2,N
1543106955.9,286047001.5,N
1543106975.7,286047003.8,Y
1543106995.6,286047003.6,P
1543107015.4,286047003.6,P
1543107035.2,286047001.3,N
1543107055.1,286047002.4,N
1543107056.0,286047002.4,N
1543107075.8,286047002.4,N
1543107095.7,286047002.1,N
1543107115.5,286047001.3,N
1543107135.3,286047004.3,Y
1543107155.2,286046999.8,P
1543107175.0,286047000.0,N
1543107175.9,286047000.0,N
1543107195.8,286046998.5,N
1543107215.6,286046999.9,N
1543107235.4,286047001.5,N
1543107255.3,286047002.5,N
1543107275.1,286047002.2,N
1543107295.8,286047002.0,N
1543107315.7,286047000.6,N
1543107335.5,286047002.8,N
1543107355.4,286047002.4,N
1543107375.2,286047004.1,Y
1543107395.0,286047000.1,P
1543107395.9,286047000.1,N
1543107415.8,286047001.9,P
1543107435.6,286047002.5,Y
1543107455.5,286047002.4,P
1543107475.3,286047002.3,N
1543107495.1,286047000.6,N
1543107515.9,286047000.8,N
1543107535.7,286047002.5,Y
1543107555.6,286047000.7,P
1543107575.4,286046998.7,P
1543107595.2,286046998.1,N
